Time,TemperatureF,DewpointF,PressureIn,WindDirection,WindDirectionDegrees,WindSpeedMPH,WindSpeedGustMPH,Humidity,HourlyPrecipIn,Conditions,Clouds,dailyrainin,SoftwareType,DateUTC
2013-08-19 00:01:00,58.7,57.0,29.59,WSW,247,0.0,2.0,95,0.00,,,0.00,Rainwise IP-100,2013-08-19 07:01:00,
2013-08-19 00:06:00,58.8,57.0,29.59,WSW,247,3.3,3.3,96,0.00,,,0.00,Rainwise IP-100,2013-08-19 07:06:00,
2013-08-19 00:11:00,58.9,57.0,29.59,West,270,1.9,4.0,96,0.00,,,0.00,Rainwise IP-100,2013-08-19 07:11:00,
2013-08-19 00:16:00,59.0,57.0,29.59,WNW,292,1.2,3.0,96,0.00,,,0.00,Rainwise IP-100,2013-08-19 07:16:00,
2013-08-19 00:21:00,58.9,57.0,29.59,NNW,337,0.0,2.0,96,0.00,,,0.00,Rainwise IP-100,2013-08-19 07:21:00,
2013-08-19 00:26:00,58.9,57.0,29.59,NNE,22,1.9,3.0,96,0.00,,,0.00,Rainwise IP-100,2013-08-19 07:26:00,
2013-08-19 00:31:00,58.7,57.0,29.59,NNE,22,0.0,3.0,96,0.00,,,0.00,Rainwise IP-100,2013-08-19 07:31:00,
2013-08-19 00:36:00,58.5,57.0,29.59,NNE,22,0.0,0.0,96,0.00,,,0.00,Rainwise IP-100,2013-08-19 07:36:00,
2013-08-19 00:41:00,58.5,57.0,29.59,SW,225,5.6,5.6,96,0.00,,,0.00,Rainwise IP-100,2013-08-19 07:41:00,
2013-08-19 00:46:00,58.8,57.0,29.58,WSW,247,2.6,5.0,96,0.00,,,0.00,Rainwise IP-100,2013-08-19 07:46:00,
2013-08-19 00:51:00,59.0,57.0,29.58,West,270,3.5,5.0,96,0.00,,,0.00,Rainwise IP-100,2013-08-19 07:51:00,
2013-08-19 00:56:00,59.1,57.0,29.59,North,360,2.3,6.0,96,0.00,,,0.00,Rainwise IP-100,2013-08-19 07:56:00,
2013-08-19 01:01:00,59.1,57.0,29.59,ENE,67,2.6,5.0,96,0.00,,,0.00,Rainwise IP-100,2013-08-19 08:01:00,
2013-08-19 01:06:00,59.0,57.0,29.60,ENE,67,0.0,4.0,96,0.00,,,0.00,Rainwise IP-100,2013-08-19 08:06:00,
2013-08-19 01:11:00,58.8,57.0,29.60,ENE,67,0.0,1.0,96,0.00,,,0.00,Rainwise IP-100,2013-08-19 08:11:00,
2013-08-19 01:16:00,58.6,57.0,29.59,WSW,247,2.8,3.0,96,0.00,,,0.00,Rainwise IP-100,2013-08-19 08:16:00,
2013-08-19 01:21:00,58.7,57.0,29.59,SW,225,4.2,5.0,96,0.00,,,0.00,Rainwise IP-100,2013-08-19 08:21:00,
2013-08-19 01:26:00,58.9,58.0,29.59,WSW,247,3.5,6.0,97,0.00,,,0.00,Rainwise IP-100,2013-08-19 08:26:00,
2013-08-19 01:31:00,59.0,58.0,29.59,SW,225,2.3,6.0,97,0.00,,,0.00,Rainwise IP-100,2013-08-19 08:31:00,
2013-08-19 01:36:00,59.1,57.0,29.59,WNW,292,3.5,6.0,96,0.00,,,0.00,Rainwise IP-100,2013-08-19 08:36:00,
2013-08-19 01:41:00,59.1,57.0,29.59,WSW,247,7.0,7.0,96,0.00,,,0.00,Rainwise IP-100,2013-08-19 08:41:00,
2013-08-19 01:46:00,59.1,57.0,29.59,WSW,247,7.0,7.0,96,0.00,,,0.00,Rainwise IP-100,2013-08-19 08:46:00,
2013-08-19 01:51:00,59.2,57.0,29.59,WSW,247,7.0,9.0,96,0.00,,,0.00,Rainwise IP-100,2013-08-19 08:51:00,
2013-08-19 01:56:00,59.3,57.0,29.59,SW,225,3.0,10.0,96,0.00,,,0.00,Rainwise IP-100,2013-08-19 08:56:00,
2013-08-19 02:01:00,59.2,57.0,29.58,SW,225,6.3,11.0,96,0.00,,,0.00,Rainwise IP-100,2013-08-19 09:01:00,
2013-08-19 02:06:00,59.2,57.0,29.58,SW,225,5.6,9.0,96,0.00,,,0.00,Rainwise IP-100,2013-08-19 09:06:00,
2013-08-19 02:11:00,59.2,57.0,29.59,SW,225,6.1,9.0,96,0.00,,,0.00,Rainwise IP-100,2013-08-19 09:11:00,
2013-08-19 02:16:00,58.9,57.0,29.59,WSW,247,7.0,9.0,96,0.00,,,0.00,Rainwise IP-100,2013-08-19 09:16:00,
2013-08-19 02:21:00,58.4,57.0,29.59,WSW,247,8.9,9.0,96,0.00,,,0.00,Rainwise IP-100,2013-08-19 09:21:00,
2013-08-19 02:26:00,57.8,57.0,29.59,WSW,247,6.3,9.0,97,0.00,,,0.00,Rainwise IP-100,2013-08-19 09:26:00,
2013-08-19 02:31:00,57.4,57.0,29.59,SSW,202,7.2,8.0,97,0.00,,,0.00,Rainwise IP-100,2013-08-19 09:31:00,
2013-08-19 02:36:00,57.1,56.0,29.59,West,270,5.8,10.0,98,0.00,,,0.00,Rainwise IP-100,2013-08-19 09:36:00,
2013-08-19 02:41:00,56.9,57.0,29.59,SW,225,6.5,10.0,99,0.00,,,0.00,Rainwise IP-100,2013-08-19 09:41:00,
2013-08-19 02:46:00,56.9,57.0,29.58,WSW,247,4.2,10.0,99,0.00,,,0.00,Rainwise IP-100,2013-08-19 09:46:00,
2013-08-19 02:51:00,56.9,57.0,29.58,SW,225,4.7,10.0,99,0.00,,,0.00,Rainwise IP-100,2013-08-19 09:51:00,
2013-08-19 02:56:00,57.0,57.0,29.58,SSW,202,3.3,11.0,100,0.00,,,0.00,Rainwise IP-100,2013-08-19 09:56:00,
2013-08-19 03:01:00,57.1,57.0,29.58,WSW,247,5.4,10.0,100,0.00,,,0.00,Rainwise IP-100,2013-08-19 10:01:00,
2013-08-19 03:06:00,57.1,57.0,29.57,WSW,247,4.2,9.0,100,0.00,,,0.00,Rainwise IP-100,2013-08-19 10:06:00,
2013-08-19 03:11:00,57.1,57.0,29.58,SW,225,7.9,11.0,100,0.00,,,0.00,Rainwise IP-100,2013-08-19 10:11:00,
2013-08-19 03:16:00,57.1,57.0,29.58,SW,225,7.7,12.0,100,0.00,,,0.00,Rainwise IP-100,2013-08-19 10:16:00,
2013-08-19 03:21:00,56.9,57.0,29.59,SW,225,9.8,11.0,100,0.00,,,0.00,Rainwise IP-100,2013-08-19 10:21:00,
2013-08-19 03:26:00,56.6,56.0,29.59,WSW,247,3.5,11.0,100,0.00,,,0.00,Rainwise IP-100,2013-08-19 10:26:00,
2013-08-19 03:31:00,56.4,56.0,29.58,SSW,202,6.5,14.0,100,0.00,,,0.00,Rainwise IP-100,2013-08-19 10:31:00,
2013-08-19 03:36:00,56.2,56.0,29.58,West,270,6.3,13.0,100,0.00,,,0.00,Rainwise IP-100,2013-08-19 10:36:00,
2013-08-19 03:41:00,56.1,56.0,29.58,WSW,247,6.1,10.0,100,0.00,,,0.00,Rainwise IP-100,2013-08-19 10:41:00,
2013-08-19 03:46:00,56.1,56.0,29.58,SW,225,9.8,11.0,100,0.00,,,0.00,Rainwise IP-100,2013-08-19 10:46:00,
2013-08-19 03:51:00,56.0,56.0,29.58,SSW,202,5.4,12.0,100,0.00,,,0.00,Rainwise IP-100,2013-08-19 10:51:00,
2013-08-19 03:56:00,56.0,56.0,29.59,SW,225,7.2,12.0,100,0.00,,,0.00,Rainwise IP-100,2013-08-19 10:56:00,
2013-08-19 04:01:00,55.9,56.0,29.59,SW,225,8.4,11.0,100,0.00,,,0.00,Rainwise IP-100,2013-08-19 11:01:00,
2013-08-19 04:06:00,56.0,56.0,29.58,SSW,202,9.3,10.0,100,0.00,,,0.00,Rainwise IP-100,2013-08-19 11:06:00,
2013-08-19 04:11:00,56.0,56.0,29.58,WSW,247,8.6,11.0,100,0.00,,,0.00,Rainwise IP-100,2013-08-19 11:11:00,
2013-08-19 04:16:00,56.0,56.0,29.58,SW,225,9.3,11.0,100,0.00,,,0.00,Rainwise IP-100,2013-08-19 11:16:00,
2013-08-19 04:21:00,56.0,56.0,29.58,WSW,247,6.1,10.0,100,0.00,,,0.00,Rainwise IP-100,2013-08-19 11:21:00,
2013-08-19 04:26:00,55.8,56.0,29.58,SW,225,4.9,8.0,100,0.00,,,0.00,Rainwise IP-100,2013-08-19 11:26:00,
2013-08-19 04:31:00,55.5,56.0,29.58,SW,225,4.7,8.0,100,0.00,,,0.00,Rainwise IP-100,2013-08-19 11:31:00,
2013-08-19 04:36:00,55.4,55.0,29.59,SW,225,7.0,9.0,100,0.00,,,0.00,Rainwise IP-100,2013-08-19 11:36:00,
2013-08-19 04:41:00,55.4,55.0,29.59,SW,225,4.7,9.0,100,0.00,,,0.00,Rainwise IP-100,2013-08-19 11:41:00,
2013-08-19 04:46:00,55.5,56.0,29.59,WSW,247,3.5,9.0,100,0.00,,,0.00,Rainwise IP-100,2013-08-19 11:46:00,
2013-08-19 04:51:00,55.7,56.0,29.59,WSW,247,3.7,7.0,100,0.00,,,0.00,Rainwise IP-100,2013-08-19 11:51:00,
2013-08-19 04:56:00,56.0,56.0,29.60,SW,225,4.2,5.0,100,0.00,,,0.00,Rainwise IP-100,2013-08-19 11:56:00,
2013-08-19 05:01:00,56.1,56.0,29.60,SW,225,6.1,7.0,100,0.00,,,0.00,Rainwise IP-100,2013-08-19 12:01:00,
2013-08-19 05:06:00,56.1,56.0,29.60,SW,225,3.5,8.0,100,0.00,,,0.00,Rainwise IP-100,2013-08-19 12:06:00,
2013-08-19 05:11:00,56.1,56.0,29.60,SW,225,5.1,9.0,100,0.00,,,0.00,Rainwise IP-100,2013-08-19 12:11:00,
2013-08-19 05:16:00,56.0,56.0,29.61,SSW,202,8.2,9.0,100,0.00,,,0.00,Rainwise IP-100,2013-08-19 12:16:00,
2013-08-19 05:21:00,55.8,56.0,29.60,SW,225,4.9,10.0,100,0.00,,,0.00,Rainwise IP-100,2013-08-19 12:21:00,
2013-08-19 05:26:00,55.6,56.0,29.60,WSW,247,4.2,8.0,100,0.00,,,0.00,Rainwise IP-100,2013-08-19 12:26:00,
2013-08-19 05:31:00,55.6,56.0,29.61,SSW,202,9.1,10.0,100,0.00,,,0.00,Rainwise IP-100,2013-08-19 12:31:00,
2013-08-19 05:36:00,55.5,56.0,29.61,SSW,202,6.3,9.0,100,0.00,,,0.00,Rainwise IP-100,2013-08-19 12:36:00,
2013-08-19 05:41:00,55.5,56.0,29.61,WSW,247,7.7,9.0,100,0.00,,,0.00,Rainwise IP-100,2013-08-19 12:41:00,
2013-08-19 05:46:00,55.5,56.0,29.61,WSW,247,4.7,11.0,100,0.00,,,0.00,Rainwise IP-100,2013-08-19 12:46:00,
2013-08-19 05:51:00,55.3,55.0,29.61,SW,225,11.0,11.0,100,0.00,,,0.00,Rainwise IP-100,2013-08-19 12:51:00,
2013-08-19 05:56:00,55.2,55.0,29.61,SSW,202,7.2,11.0,100,0.00,,,0.00,Rainwise IP-100,2013-08-19 12:56:00,
2013-08-19 06:01:00,55.0,55.0,29.62,SW,225,3.0,11.0,100,0.00,,,0.00,Rainwise IP-100,2013-08-19 13:01:00,
2013-08-19 06:06:00,54.9,55.0,29.62,SW,225,9.3,10.0,100,0.00,,,0.00,Rainwise IP-100,2013-08-19 13:06:00,
2013-08-19 06:11:00,54.8,54.0,29.62,SW,225,5.1,12.0,100,0.00,,,0.00,Rainwise IP-100,2013-08-19 13:11:00,
2013-08-19 06:16:00,54.9,55.0,29.62,SW,225,5.8,9.0,100,0.00,,,0.00,Rainwise IP-100,2013-08-19 13:16:00,
2013-08-19 06:21:00,55.0,55.0,29.62,WSW,247,7.2,10.0,100,0.00,,,0.00,Rainwise IP-100,2013-08-19 13:21:00,
2013-08-19 06:26:00,55.0,55.0,29.62,SSW,202,7.9,9.0,100,0.00,,,0.00,Rainwise IP-100,2013-08-19 13:26:00,
2013-08-19 06:31:00,55.0,55.0,29.63,WSW,247,4.0,8.0,100,0.00,,,0.00,Rainwise IP-100,2013-08-19 13:31:00,
2013-08-19 06:36:00,55.0,55.0,29.63,SSW,202,7.2,9.0,100,0.00,,,0.00,Rainwise IP-100,2013-08-19 13:36:00,
2013-08-19 06:41:00,55.0,55.0,29.62,SW,225,4.4,11.0,100,0.00,,,0.00,Rainwise IP-100,2013-08-19 13:41:00,
2013-08-19 06:46:00,55.0,55.0,29.63,SSW,202,6.3,8.0,100,0.00,,,0.00,Rainwise IP-100,2013-08-19 13:46:00,
2013-08-19 06:51:00,55.2,55.0,29.64,West,270,4.9,7.0,100,0.00,,,0.00,Rainwise IP-100,2013-08-19 13:51:00,
2013-08-19 06:56:00,55.3,55.0,29.63,SSW,202,2.3,8.0,100,0.00,,,0.00,Rainwise IP-100,2013-08-19 13:56:00,
2013-08-19 07:01:00,55.4,55.0,29.64,SW,225,4.0,7.0,100,0.00,,,0.00,Rainwise IP-100,2013-08-19 14:01:00,
2013-08-19 07:06:00,55.5,56.0,29.64,SW,225,5.4,6.0,100,0.00,,,0.00,Rainwise IP-100,2013-08-19 14:06:00,
2013-08-19 07:11:00,55.6,56.0,29.64,SW,225,4.4,8.0,100,0.00,,,0.00,Rainwise IP-100,2013-08-19 14:11:00,
2013-08-19 07:16:00,55.5,56.0,29.64,West,270,3.3,7.0,100,0.00,,,0.00,Rainwise IP-100,2013-08-19 14:16:00,
2013-08-19 07:21:00,55.4,55.0,29.64,SSW,202,4.7,8.0,100,0.00,,,0.00,Rainwise IP-100,2013-08-19 14:21:00,
2013-08-19 07:26:00,55.4,55.0,29.64,SW,225,3.3,8.0,100,0.00,,,0.00,Rainwise IP-100,2013-08-19 14:26:00,
2013-08-19 07:31:00,55.4,55.0,29.64,SW,225,3.5,9.0,100,0.00,,,0.00,Rainwise IP-100,2013-08-19 14:31:00,
2013-08-19 07:36:00,55.5,56.0,29.64,SSW,202,6.5,7.0,100,0.00,,,0.00,Rainwise IP-100,2013-08-19 14:36:00,
2013-08-19 07:41:00,55.6,56.0,29.64,SW,225,3.0,6.0,100,0.00,,,0.00,Rainwise IP-100,2013-08-19 14:41:00,
2013-08-19 07:46:00,55.8,56.0,29.64,SW,225,4.2,7.0,100,0.00,,,0.00,Rainwise IP-100,2013-08-19 14:46:00,
2013-08-19 07:51:00,55.8,56.0,29.64,SW,225,4.2,9.0,100,0.00,,,0.00,Rainwise IP-100,2013-08-19 14:51:00,
2013-08-19 07:56:00,55.9,56.0,29.64,WSW,247,7.0,10.0,100,0.00,,,0.00,Rainwise IP-100,2013-08-19 14:56:00,
2013-08-19 08:01:00,56.0,56.0,29.65,WSW,247,4.4,10.0,100,0.00,,,0.00,Rainwise IP-100,2013-08-19 15:01:00,
2013-08-19 08:06:00,56.0,56.0,29.65,SSW,202,7.7,10.0,100,0.00,,,0.00,Rainwise IP-100,2013-08-19 15:06:00,
2013-08-19 08:11:00,55.9,56.0,29.65,WSW,247,9.8,9.8,100,0.00,,,0.00,Rainwise IP-100,2013-08-19 15:11:00,
2013-08-19 08:16:00,56.0,56.0,29.65,SW,225,4.0,9.0,100,0.00,,,0.00,Rainwise IP-100,2013-08-19 15:16:00,
2013-08-19 08:21:00,56.1,56.0,29.65,SW,225,7.2,9.0,100,0.00,,,0.00,Rainwise IP-100,2013-08-19 15:21:00,
2013-08-19 08:27:00,56.1,56.0,29.65,WSW,247,3.3,10.0,100,0.00,,,0.00,Rainwise IP-100,2013-08-19 15:27:00,
2013-08-19 08:32:00,56.2,56.0,29.66,SSW,202,5.4,8.0,100,0.00,,,0.00,Rainwise IP-100,2013-08-19 15:32:00,
2013-08-19 08:37:00,56.3,56.0,29.66,West,270,3.7,7.0,100,0.00,,,0.00,Rainwise IP-100,2013-08-19 15:37:00,
2013-08-19 08:42:00,56.3,56.0,29.67,WSW,247,3.3,7.0,100,0.00,,,0.00,Rainwise IP-100,2013-08-19 15:42:00,
2013-08-19 08:47:00,56.3,56.0,29.67,SSW,202,8.2,8.2,100,0.00,,,0.00,Rainwise IP-100,2013-08-19 15:47:00,
2013-08-19 08:52:00,56.3,56.0,29.67,SW,225,6.8,9.0,100,0.00,,,0.00,Rainwise IP-100,2013-08-19 15:52:00,
2013-08-19 08:57:00,56.3,56.0,29.67,West,270,4.0,10.0,100,0.00,,,0.00,Rainwise IP-100,2013-08-19 15:57:00,
2013-08-19 09:02:00,56.3,56.0,29.67,West,270,6.1,6.1,100,0.00,,,0.00,Rainwise IP-100,2013-08-19 16:02:00,
2013-08-19 09:07:00,56.4,56.0,29.67,SW,225,3.3,8.0,100,0.00,,,0.00,Rainwise IP-100,2013-08-19 16:07:00,
2013-08-19 09:12:00,56.5,56.0,29.67,SSW,202,4.7,9.0,100,0.00,,,0.00,Rainwise IP-100,2013-08-19 16:12:00,
2013-08-19 09:17:00,56.4,56.0,29.67,SW,225,2.6,9.0,100,0.00,,,0.00,Rainwise IP-100,2013-08-19 16:17:00,
2013-08-19 09:22:00,56.4,56.0,29.67,WSW,247,6.5,10.0,100,0.00,,,0.00,Rainwise IP-100,2013-08-19 16:22:00,
2013-08-19 09:27:00,56.5,56.0,29.67,WSW,247,4.4,10.0,100,0.00,,,0.00,Rainwise IP-100,2013-08-19 16:27:00,
2013-08-19 09:32:00,56.7,56.0,29.67,SSW,202,5.4,11.0,100,0.00,,,0.00,Rainwise IP-100,2013-08-19 16:32:00,
2013-08-19 09:37:00,56.8,56.0,29.67,SSW,202,5.6,9.0,100,0.00,,,0.00,Rainwise IP-100,2013-08-19 16:37:00,
2013-08-19 09:42:00,56.8,56.0,29.68,SSW,202,7.2,9.0,100,0.00,,,0.00,Rainwise IP-100,2013-08-19 16:42:00,
2013-08-19 09:47:00,56.9,57.0,29.67,SSW,202,4.2,8.0,100,0.00,,,0.00,Rainwise IP-100,2013-08-19 16:47:00,
2013-08-19 09:52:00,57.1,57.0,29.67,WSW,247,5.8,11.0,100,0.00,,,0.00,Rainwise IP-100,2013-08-19 16:52:00,
2013-08-19 09:57:00,57.2,57.0,29.68,SW,225,7.9,9.0,100,0.00,,,0.00,Rainwise IP-100,2013-08-19 16:57:00,
2013-08-19 10:02:00,57.4,57.0,29.67,SW,225,3.7,8.0,100,0.00,,,0.00,Rainwise IP-100,2013-08-19 17:02:00,
2013-08-19 10:07:00,57.8,57.0,29.68,SSW,202,5.1,10.0,100,0.00,,,0.00,Rainwise IP-100,2013-08-19 17:07:00,
2013-08-19 10:12:00,58.1,58.0,29.68,SW,225,5.6,10.0,100,0.00,,,0.00,Rainwise IP-100,2013-08-19 17:12:00,
2013-08-19 10:17:00,58.1,58.0,29.68,SSW,202,5.6,11.0,100,0.00,,,0.00,Rainwise IP-100,2013-08-19 17:17:00,
2013-08-19 10:22:00,58.3,58.0,29.68,SSW,202,2.8,10.0,100,0.00,,,0.00,Rainwise IP-100,2013-08-19 17:22:00,
2013-08-19 10:27:00,58.7,59.0,29.68,West,270,7.2,9.0,99,0.00,,,0.00,Rainwise IP-100,2013-08-19 17:27:00,
2013-08-19 10:32:00,59.1,58.0,29.68,WSW,247,3.5,10.0,98,0.00,,,0.00,Rainwise IP-100,2013-08-19 17:32:00,
2013-08-19 10:37:00,59.8,58.0,29.68,WSW,247,6.1,10.0,97,0.00,,,0.00,Rainwise IP-100,2013-08-19 17:37:00,
2013-08-19 10:42:00,60.5,59.0,29.68,SSW,202,9.6,11.0,96,0.00,,,0.00,Rainwise IP-100,2013-08-19 17:42:00,
2013-08-19 10:47:00,60.7,59.0,29.68,SSW,202,7.9,11.0,95,0.00,,,0.00,Rainwise IP-100,2013-08-19 17:47:00,
2013-08-19 10:52:00,60.8,59.0,29.68,WSW,247,4.7,11.0,95,0.00,,,0.00,Rainwise IP-100,2013-08-19 17:52:00,
2013-08-19 10:57:00,61.1,59.0,29.68,SSW,202,7.0,11.0,94,0.00,,,0.00,Rainwise IP-100,2013-08-19 17:57:00,
2013-08-19 11:02:00,61.6,59.0,29.68,West,270,5.6,10.0,93,0.00,,,0.00,Rainwise IP-100,2013-08-19 18:02:00,
2013-08-19 11:07:00,61.9,60.0,29.68,SW,225,8.2,12.0,92,0.00,,,0.00,Rainwise IP-100,2013-08-19 18:07:00,
2013-08-19 11:12:00,62.1,59.0,29.68,SSW,202,4.7,12.0,91,0.00,,,0.00,Rainwise IP-100,2013-08-19 18:12:00,
2013-08-19 11:17:00,62.1,59.0,29.68,SW,225,12.1,13.0,91,0.00,,,0.00,Rainwise IP-100,2013-08-19 18:17:00,
2013-08-19 11:22:00,62.2,59.0,29.68,WSW,247,5.4,13.0,90,0.00,,,0.00,Rainwise IP-100,2013-08-19 18:22:00,
2013-08-19 11:27:00,62.4,59.0,29.69,WNW,292,9.6,12.0,90,0.00,,,0.00,Rainwise IP-100,2013-08-19 18:27:00,
2013-08-19 11:32:00,62.4,59.0,29.69,West,270,4.0,13.0,89,0.00,,,0.00,Rainwise IP-100,2013-08-19 18:32:00,
2013-08-19 11:37:00,62.6,59.0,29.68,WSW,247,8.6,13.0,89,0.00,,,0.00,Rainwise IP-100,2013-08-19 18:37:00,
2013-08-19 11:42:00,63.1,59.0,29.68,SW,225,9.3,14.0,88,0.00,,,0.00,Rainwise IP-100,2013-08-19 18:42:00,
2013-08-19 11:47:00,63.0,59.0,29.68,West,270,3.3,13.0,88,0.00,,,0.00,Rainwise IP-100,2013-08-19 18:47:00,
2013-08-19 11:52:00,62.6,59.0,29.67,WSW,247,6.3,14.0,88,0.00,,,0.00,Rainwise IP-100,2013-08-19 18:52:00,
2013-08-19 11:57:00,62.6,59.0,29.68,WSW,247,9.6,13.0,89,0.00,,,0.00,Rainwise IP-100,2013-08-19 18:57:00,
2013-08-19 12:02:00,62.4,59.0,29.68,SW,225,10.7,14.0,89,0.00,,,0.00,Rainwise IP-100,2013-08-19 19:02:00,
2013-08-19 12:07:00,62.2,59.0,29.68,WSW,247,6.5,14.0,89,0.00,,,0.00,Rainwise IP-100,2013-08-19 19:07:00,
2013-08-19 12:12:00,62.6,59.0,29.68,SSW,202,7.9,12.0,89,0.00,,,0.00,Rainwise IP-100,2013-08-19 19:12:00,
2013-08-19 12:17:00,62.7,59.0,29.68,SSW,202,13.3,16.0,88,0.00,,,0.00,Rainwise IP-100,2013-08-19 19:17:00,
2013-08-19 12:22:00,62.2,58.0,29.68,SSW,202,6.3,16.0,88,0.00,,,0.00,Rainwise IP-100,2013-08-19 19:22:00,
2013-08-19 12:27:00,62.1,58.0,29.68,WSW,247,6.8,13.0,88,0.00,,,0.00,Rainwise IP-100,2013-08-19 19:27:00,
2013-08-19 12:32:00,62.2,58.0,29.68,SSW,202,8.4,16.0,88,0.00,,,0.00,Rainwise IP-100,2013-08-19 19:32:00,
2013-08-19 12:37:00,62.3,58.0,29.67,SW,225,11.4,16.0,88,0.00,,,0.00,Rainwise IP-100,2013-08-19 19:37:00,
2013-08-19 12:42:00,62.1,58.0,29.68,SSW,202,9.6,17.0,88,0.00,,,0.00,Rainwise IP-100,2013-08-19 19:42:00,
2013-08-19 12:47:00,62.1,58.0,29.67,SSW,202,14.9,17.0,88,0.00,,,0.00,Rainwise IP-100,2013-08-19 19:47:00,
2013-08-19 12:52:00,62.3,58.0,29.67,SSW,202,11.0,17.0,88,0.00,,,0.00,Rainwise IP-100,2013-08-19 19:52:00,
2013-08-19 12:57:00,62.6,59.0,29.67,SW,225,5.8,17.0,88,0.00,,,0.00,Rainwise IP-100,2013-08-19 19:57:00,
2013-08-19 13:02:00,62.7,59.0,29.67,WSW,247,14.0,18.0,87,0.00,,,0.00,Rainwise IP-100,2013-08-19 20:02:00,
2013-08-19 13:07:00,62.4,59.0,29.67,SW,225,16.3,16.3,87,0.00,,,0.00,Rainwise IP-100,2013-08-19 20:07:00,
2013-08-19 13:12:00,62.1,58.0,29.67,SW,225,14.2,18.0,88,0.00,,,0.00,Rainwise IP-100,2013-08-19 20:12:00,
2013-08-19 13:17:00,62.2,58.0,29.67,WSW,247,8.9,18.0,88,0.00,,,0.00,Rainwise IP-100,2013-08-19 20:17:00,
2013-08-19 13:22:00,62.5,59.0,29.67,West,270,8.6,19.0,88,0.00,,,0.00,Rainwise IP-100,2013-08-19 20:22:00,
2013-08-19 13:27:00,62.6,59.0,29.67,WSW,247,13.3,17.0,88,0.00,,,0.00,Rainwise IP-100,2013-08-19 20:27:00,
2013-08-19 13:32:00,62.6,59.0,29.66,SW,225,14.2,19.0,88,0.00,,,0.00,Rainwise IP-100,2013-08-19 20:32:00,
2013-08-19 13:37:00,62.5,59.0,29.67,SSW,202,16.6,17.0,88,0.00,,,0.00,Rainwise IP-100,2013-08-19 20:37:00,
2013-08-19 13:42:00,62.6,59.0,29.67,SW,225,12.4,20.0,87,0.00,,,0.00,Rainwise IP-100,2013-08-19 20:42:00,
2013-08-19 13:47:00,62.6,59.0,29.66,West,270,10.3,19.0,87,0.00,,,0.00,Rainwise IP-100,2013-08-19 20:47:00,
2013-08-19 13:52:00,62.6,59.0,29.66,SSW,202,9.8,19.0,87,0.00,,,0.00,Rainwise IP-100,2013-08-19 20:52:00,
2013-08-19 13:57:00,63.1,59.0,29.66,SW,225,10.0,18.0,87,0.00,,,0.00,Rainwise IP-100,2013-08-19 20:57:00,
2013-08-19 14:02:00,62.9,59.0,29.67,SSW,202,11.7,17.0,87,0.00,,,0.00,Rainwise IP-100,2013-08-19 21:02:00,
2013-08-19 14:07:00,62.3,58.0,29.66,WSW,247,6.8,17.0,88,0.00,,,0.00,Rainwise IP-100,2013-08-19 21:07:00,
2013-08-19 14:12:00,62.2,58.0,29.67,SW,225,12.1,18.0,88,0.00,,,0.00,Rainwise IP-100,2013-08-19 21:12:00,
2013-08-19 14:17:00,62.1,59.0,29.67,SSW,202,13.8,18.0,89,0.00,,,0.00,Rainwise IP-100,2013-08-19 21:17:00,
2013-08-19 14:22:00,62.3,59.0,29.66,WSW,247,5.1,18.0,89,0.00,,,0.00,Rainwise IP-100,2013-08-19 21:22:00,
2013-08-19 14:27:00,62.6,59.0,29.66,SW,225,11.4,15.0,88,0.00,,,0.00,Rainwise IP-100,2013-08-19 21:27:00,
2013-08-19 14:32:00,62.8,59.0,29.66,SW,225,7.2,15.0,88,0.00,,,0.00,Rainwise IP-100,2013-08-19 21:32:00,
2013-08-19 14:37:00,62.6,59.0,29.66,SSW,202,13.1,19.0,87,0.00,,,0.00,Rainwise IP-100,2013-08-19 21:37:00,
2013-08-19 14:42:00,62.7,59.0,29.66,WSW,247,7.5,17.0,87,0.00,,,0.00,Rainwise IP-100,2013-08-19 21:42:00,
2013-08-19 14:47:00,62.8,59.0,29.67,SW,225,16.1,16.1,87,0.00,,,0.00,Rainwise IP-100,2013-08-19 21:47:00,
2013-08-19 14:52:00,62.7,59.0,29.66,WSW,247,9.3,16.0,87,0.00,,,0.00,Rainwise IP-100,2013-08-19 21:52:00,
2013-08-19 14:57:00,63.1,59.0,29.67,South,180,7.5,15.0,87,0.00,,,0.00,Rainwise IP-100,2013-08-19 21:57:00,
2013-08-19 15:02:00,63.0,59.0,29.67,SW,225,7.0,18.0,87,0.00,,,0.00,Rainwise IP-100,2013-08-19 22:02:00,
2013-08-19 15:07:00,62.6,59.0,29.66,WSW,247,9.8,14.0,87,0.00,,,0.00,Rainwise IP-100,2013-08-19 22:07:00,
2013-08-19 15:12:00,62.2,59.0,29.66,West,270,6.5,17.0,89,0.00,,,0.00,Rainwise IP-100,2013-08-19 22:12:00,
2013-08-19 15:17:00,61.9,59.0,29.66,WSW,247,12.6,18.0,89,0.00,,,0.00,Rainwise IP-100,2013-08-19 22:17:00,
2013-08-19 15:22:00,61.5,59.0,29.66,WSW,247,5.8,18.0,90,0.00,,,0.00,Rainwise IP-100,2013-08-19 22:22:00,
2013-08-19 15:27:00,61.1,58.0,29.66,SSW,202,6.1,16.0,91,0.00,,,0.00,Rainwise IP-100,2013-08-19 22:27:00,
2013-08-19 15:32:00,61.0,58.0,29.65,SW,225,4.9,18.0,91,0.00,,,0.00,Rainwise IP-100,2013-08-19 22:32:00,
2013-08-19 15:37:00,60.9,59.0,29.65,WSW,247,11.4,16.0,92,0.00,,,0.00,Rainwise IP-100,2013-08-19 22:37:00,
2013-08-19 15:42:00,60.7,58.0,29.66,WSW,247,13.1,17.0,92,0.00,,,0.00,Rainwise IP-100,2013-08-19 22:42:00,
2013-08-19 15:47:00,60.9,59.0,29.66,SW,225,14.5,16.0,93,0.00,,,0.00,Rainwise IP-100,2013-08-19 22:47:00,
2013-08-19 15:52:00,60.9,59.0,29.65,SW,225,3.7,17.0,93,0.00,,,0.00,Rainwise IP-100,2013-08-19 22:52:00,
2013-08-19 15:57:00,60.7,58.0,29.65,SW,225,7.9,16.0,93,0.00,,,0.00,Rainwise IP-100,2013-08-19 22:57:00,
2013-08-19 16:02:00,60.8,58.0,29.65,SW,225,10.7,19.0,93,0.00,,,0.00,Rainwise IP-100,2013-08-19 23:02:00,
2013-08-19 16:07:00,60.7,58.0,29.65,SSW,202,10.0,18.0,93,0.00,,,0.00,Rainwise IP-100,2013-08-19 23:07:00,
2013-08-19 16:12:00,60.7,59.0,29.65,SSW,202,9.1,16.0,94,0.00,,,0.00,Rainwise IP-100,2013-08-19 23:12:00,
2013-08-19 16:17:00,60.7,59.0,29.65,WSW,247,9.8,16.0,94,0.00,,,0.00,Rainwise IP-100,2013-08-19 23:17:00,
2013-08-19 16:22:00,60.5,59.0,29.65,SSW,202,13.5,18.0,94,0.00,,,0.00,Rainwise IP-100,2013-08-19 23:22:00,
2013-08-19 16:27:00,60.1,58.0,29.64,WSW,247,11.7,18.0,94,0.00,,,0.00,Rainwise IP-100,2013-08-19 23:27:00,
2013-08-19 16:32:00,60.2,58.0,29.65,WSW,247,10.5,18.0,95,0.00,,,0.00,Rainwise IP-100,2013-08-19 23:32:00,
2013-08-19 16:37:00,60.3,58.0,29.64,SSW,202,6.8,18.0,95,0.00,,,0.00,Rainwise IP-100,2013-08-19 23:37:00,
2013-08-19 16:42:00,60.5,59.0,29.64,SW,225,6.8,16.0,95,0.00,,,0.00,Rainwise IP-100,2013-08-19 23:42:00,
2013-08-19 16:47:00,60.5,59.0,29.64,SSW,202,11.7,19.0,95,0.00,,,0.00,Rainwise IP-100,2013-08-19 23:47:00,
2013-08-19 16:52:00,60.5,59.0,29.64,SW,225,11.0,14.0,95,0.00,,,0.00,Rainwise IP-100,2013-08-19 23:52:00,
2013-08-19 16:57:00,60.6,59.0,29.64,SSW,202,5.8,15.0,95,0.00,,,0.00,Rainwise IP-100,2013-08-19 23:57:00,
2013-08-19 17:02:00,60.5,59.0,29.64,SW,225,7.9,17.0,95,0.00,,,0.00,Rainwise IP-100,2013-08-20 00:02:00,
2013-08-19 17:07:00,60.3,58.0,29.63,SW,225,7.0,15.0,95,0.00,,,0.00,Rainwise IP-100,2013-08-20 00:07:00,
2013-08-19 17:12:00,60.2,58.0,29.63,SSW,202,7.2,16.0,95,0.00,,,0.00,Rainwise IP-100,2013-08-20 00:12:00,
2013-08-19 17:17:00,60.3,58.0,29.64,SW,225,10.5,13.0,95,0.00,,,0.00,Rainwise IP-100,2013-08-20 00:17:00,
2013-08-19 17:22:00,60.3,58.0,29.63,SW,225,8.4,15.0,95,0.00,,,0.00,Rainwise IP-100,2013-08-20 00:22:00,
2013-08-19 17:27:00,60.4,59.0,29.64,SSW,202,7.5,14.0,95,0.00,,,0.00,Rainwise IP-100,2013-08-20 00:27:00,
2013-08-19 17:32:00,60.3,59.0,29.63,SW,225,11.2,18.0,96,0.00,,,0.00,Rainwise IP-100,2013-08-20 00:32:00,
2013-08-19 17:37:00,60.1,59.0,29.63,SW,225,9.3,20.0,96,0.00,,,0.00,Rainwise IP-100,2013-08-20 00:37:00,
2013-08-19 17:42:00,60.0,59.0,29.63,SSW,202,7.0,13.0,96,0.00,,,0.00,Rainwise IP-100,2013-08-20 00:42:00,
2013-08-19 17:47:00,60.2,59.0,29.63,SW,225,10.0,19.0,96,0.00,,,0.00,Rainwise IP-100,2013-08-20 00:47:00,
2013-08-19 17:52:00,60.1,59.0,29.62,SW,225,4.4,19.0,96,0.00,,,0.00,Rainwise IP-100,2013-08-20 00:52:00,
2013-08-19 17:57:00,59.8,58.0,29.62,SW,225,8.9,20.0,96,0.00,,,0.00,Rainwise IP-100,2013-08-20 00:57:00,
2013-08-19 18:02:00,59.7,58.0,29.62,SW,225,10.0,15.0,97,0.00,,,0.00,Rainwise IP-100,2013-08-20 01:02:00,
2013-08-19 18:07:00,59.8,58.0,29.63,SSW,202,13.3,17.0,97,0.00,,,0.00,Rainwise IP-100,2013-08-20 01:07:00,
2013-08-19 18:12:00,59.6,58.0,29.63,WSW,247,7.7,19.0,97,0.00,,,0.00,Rainwise IP-100,2013-08-20 01:12:00,
2013-08-19 18:17:00,59.5,58.0,29.63,SW,225,8.9,17.0,97,0.00,,,0.00,Rainwise IP-100,2013-08-20 01:17:00,
2013-08-19 18:22:00,59.5,58.0,29.63,SW,225,17.5,17.5,97,0.00,,,0.00,Rainwise IP-100,2013-08-20 01:22:00,
2013-08-19 18:27:00,59.6,59.0,29.63,SW,225,8.4,17.0,98,0.00,,,0.00,Rainwise IP-100,2013-08-20 01:27:00,
2013-08-19 18:32:00,59.4,59.0,29.63,SW,225,12.8,19.0,98,0.00,,,0.00,Rainwise IP-100,2013-08-20 01:32:00,
2013-08-19 18:37:00,59.4,59.0,29.63,SW,225,19.6,19.6,98,0.00,,,0.00,Rainwise IP-100,2013-08-20 01:37:00,
2013-08-19 18:42:00,59.5,59.0,29.63,SW,225,11.7,19.0,98,0.00,,,0.00,Rainwise IP-100,2013-08-20 01:42:00,
2013-08-19 18:47:00,59.4,59.0,29.62,WSW,247,8.4,17.0,98,0.00,,,0.00,Rainwise IP-100,2013-08-20 01:47:00,
2013-08-19 18:52:00,59.3,58.0,29.63,WSW,247,15.9,20.0,98,0.00,,,0.00,Rainwise IP-100,2013-08-20 01:52:00,
2013-08-19 18:57:00,59.1,58.0,29.62,SW,225,11.4,18.0,98,0.00,,,0.00,Rainwise IP-100,2013-08-20 01:57:00,
2013-08-19 19:02:00,59.0,58.0,29.62,WSW,247,8.9,18.0,98,0.00,,,0.00,Rainwise IP-100,2013-08-20 02:02:00,
2013-08-19 19:07:00,58.8,59.0,29.62,SW,225,5.8,18.0,99,0.00,,,0.00,Rainwise IP-100,2013-08-20 02:07:00,
2013-08-19 19:12:00,58.8,59.0,29.62,SW,225,14.9,19.0,99,0.00,,,0.00,Rainwise IP-100,2013-08-20 02:12:00,
2013-08-19 19:17:00,58.7,59.0,29.62,SW,225,12.6,17.0,99,0.00,,,0.00,Rainwise IP-100,2013-08-20 02:17:00,
2013-08-19 19:22:00,58.5,59.0,29.62,SSW,202,8.6,17.0,99,0.00,,,0.00,Rainwise IP-100,2013-08-20 02:22:00,
2013-08-19 19:27:00,58.5,59.0,29.62,SW,225,15.4,19.0,100,0.00,,,0.00,Rainwise IP-100,2013-08-20 02:27:00,
2013-08-19 19:32:00,58.5,59.0,29.62,SSW,202,15.6,18.0,100,0.00,,,0.00,Rainwise IP-100,2013-08-20 02:32:00,
2013-08-19 19:37:00,58.6,59.0,29.62,SW,225,13.3,17.0,100,0.00,,,0.00,Rainwise IP-100,2013-08-20 02:37:00,
2013-08-19 19:42:00,58.6,59.0,29.62,West,270,15.2,18.0,100,0.00,,,0.00,Rainwise IP-100,2013-08-20 02:42:00,
2013-08-19 19:47:00,58.5,59.0,29.62,SSW,202,10.5,16.0,100,0.00,,,0.00,Rainwise IP-100,2013-08-20 02:47:00,
2013-08-19 19:52:00,58.4,58.0,29.62,SW,225,9.3,14.0,100,0.00,,,0.00,Rainwise IP-100,2013-08-20 02:52:00,
2013-08-19 19:57:00,58.4,58.0,29.61,WSW,247,10.7,16.0,100,0.00,,,0.00,Rainwise IP-100,2013-08-20 02:57:00,
2013-08-19 20:02:00,58.4,58.0,29.62,SSW,202,13.1,16.0,100,0.00,,,0.00,Rainwise IP-100,2013-08-20 03:02:00,
2013-08-19 20:07:00,58.3,58.0,29.62,West,270,8.9,18.0,100,0.00,,,0.00,Rainwise IP-100,2013-08-20 03:07:00,
2013-08-19 20:12:00,58.3,58.0,29.62,SW,225,9.6,17.0,100,0.00,,,0.00,Rainwise IP-100,2013-08-20 03:12:00,
2013-08-19 20:17:00,58.4,58.0,29.63,SSW,202,7.7,16.0,100,0.00,,,0.00,Rainwise IP-100,2013-08-20 03:17:00,
2013-08-19 20:22:00,58.4,58.0,29.63,WSW,247,2.8,21.0,100,0.00,,,0.00,Rainwise IP-100,2013-08-20 03:22:00,
2013-08-19 20:27:00,58.3,58.0,29.63,SSW,202,6.5,18.0,100,0.00,,,0.00,Rainwise IP-100,2013-08-20 03:27:00,
2013-08-19 20:32:00,58.3,58.0,29.63,SSW,202,9.8,17.0,100,0.00,,,0.00,Rainwise IP-100,2013-08-20 03:32:00,
2013-08-19 20:37:00,58.4,58.0,29.63,West,270,6.8,15.0,100,0.00,,,0.00,Rainwise IP-100,2013-08-20 03:37:00,
2013-08-19 20:42:00,58.4,58.0,29.63,WSW,247,6.5,16.0,100,0.00,,,0.00,Rainwise IP-100,2013-08-20 03:42:00,
2013-08-19 20:47:00,58.4,58.0,29.64,WSW,247,12.8,17.0,100,0.00,,,0.00,Rainwise IP-100,2013-08-20 03:47:00,
2013-08-19 20:52:00,58.4,58.0,29.65,SSW,202,10.7,15.0,100,0.00,,,0.00,Rainwise IP-100,2013-08-20 03:52:00,
2013-08-19 20:57:00,58.5,59.0,29.65,SW,225,15.9,17.0,100,0.00,,,0.00,Rainwise IP-100,2013-08-20 03:57:00,
2013-08-19 21:01:00,58.4,58.0,29.65,SW,225,9.8,17.0,100,0.00,,,0.00,Rainwise IP-100,2013-08-20 04:01:00,
2013-08-19 21:02:00,58.4,58.0,29.65,SW,225,10.7,17.0,100,0.00,,,0.00,Rainwise IP-100,2013-08-20 04:02:00,
2013-08-19 21:07:00,58.4,58.0,29.64,SW,225,10.7,18.0,100,0.00,,,0.00,Rainwise IP-100,2013-08-20 04:07:00,
2013-08-19 21:12:00,58.4,58.0,29.64,SW,225,7.2,16.0,100,0.00,,,0.00,Rainwise IP-100,2013-08-20 04:12:00,
2013-08-19 21:17:00,58.3,58.0,29.65,SW,225,11.2,14.0,100,0.00,,,0.00,Rainwise IP-100,2013-08-20 04:17:00,
2013-08-19 21:22:00,58.3,58.0,29.65,SSW,202,6.8,17.0,100,0.00,,,0.00,Rainwise IP-100,2013-08-20 04:22:00,
2013-08-19 21:27:00,58.3,58.0,29.65,SW,225,9.1,18.0,100,0.00,,,0.00,Rainwise IP-100,2013-08-20 04:27:00,
2013-08-19 21:32:00,58.4,58.0,29.65,SW,225,8.2,19.0,100,0.00,,,0.00,Rainwise IP-100,2013-08-20 04:32:00,
2013-08-19 21:37:00,58.5,59.0,29.65,SSW,202,11.9,14.0,100,0.00,,,0.00,Rainwise IP-100,2013-08-20 04:37:00,
2013-08-19 21:42:00,58.4,58.0,29.65,SW,225,11.0,16.0,100,0.00,,,0.00,Rainwise IP-100,2013-08-20 04:42:00,
2013-08-19 21:47:00,58.4,58.0,29.65,WNW,292,4.2,17.0,100,0.00,,,0.00,Rainwise IP-100,2013-08-20 04:47:00,
2013-08-19 21:52:00,58.4,58.0,29.65,SSW,202,10.5,12.0,100,0.00,,,0.00,Rainwise IP-100,2013-08-20 04:52:00,
2013-08-19 21:57:00,58.5,59.0,29.65,SSW,202,6.3,15.0,100,0.00,,,0.00,Rainwise IP-100,2013-08-20 04:57:00,
2013-08-19 22:02:00,58.6,59.0,29.65,WSW,247,7.2,13.0,100,0.00,,,0.00,Rainwise IP-100,2013-08-20 05:02:00,
2013-08-19 22:07:00,58.6,59.0,29.65,SW,225,11.4,11.4,100,0.00,,,0.00,Rainwise IP-100,2013-08-20 05:07:00,
2013-08-19 22:12:00,58.6,59.0,29.66,SW,225,7.0,14.0,100,0.00,,,0.00,Rainwise IP-100,2013-08-20 05:12:00,
2013-08-19 22:17:00,58.6,59.0,29.66,WSW,247,10.5,14.0,100,0.00,,,0.00,Rainwise IP-100,2013-08-20 05:17:00,
2013-08-19 22:22:00,58.7,59.0,29.67,SW,225,4.9,13.0,100,0.00,,,0.00,Rainwise IP-100,2013-08-20 05:22:00,
2013-08-19 22:27:00,58.6,59.0,29.66,SW,225,6.5,16.0,100,0.00,,,0.00,Rainwise IP-100,2013-08-20 05:27:00,
2013-08-19 22:32:00,58.6,59.0,29.66,WSW,247,5.6,12.0,100,0.00,,,0.00,Rainwise IP-100,2013-08-20 05:32:00,
2013-08-19 22:37:00,58.7,59.0,29.66,SW,225,7.7,9.0,100,0.00,,,0.00,Rainwise IP-100,2013-08-20 05:37:00,
2013-08-19 22:42:00,58.7,59.0,29.66,SSW,202,8.2,13.0,100,0.00,,,0.00,Rainwise IP-100,2013-08-20 05:42:00,
2013-08-19 22:47:00,58.6,59.0,29.65,SW,225,10.5,12.0,100,0.00,,,0.00,Rainwise IP-100,2013-08-20 05:47:00,
2013-08-19 22:52:00,58.6,59.0,29.65,SW,225,6.3,16.0,100,0.00,,,0.00,Rainwise IP-100,2013-08-20 05:52:00,
2013-08-19 22:57:00,58.5,59.0,29.65,SSW,202,9.1,13.0,100,0.00,,,0.00,Rainwise IP-100,2013-08-20 05:57:00,
2013-08-19 23:02:00,58.5,59.0,29.65,WSW,247,2.3,14.0,100,0.00,,,0.00,Rainwise IP-100,2013-08-20 06:02:00,
2013-08-19 23:07:00,58.5,59.0,29.65,SSW,202,11.4,14.0,100,0.00,,,0.00,Rainwise IP-100,2013-08-20 06:07:00,
2013-08-19 23:12:00,58.5,59.0,29.66,SW,225,6.5,14.0,100,0.00,,,0.00,Rainwise IP-100,2013-08-20 06:12:00,
2013-08-19 23:17:00,58.5,59.0,29.66,WSW,247,6.5,10.0,100,0.00,,,0.00,Rainwise IP-100,2013-08-20 06:17:00,
2013-08-19 23:22:00,58.6,59.0,29.67,SW,225,5.6,13.0,100,0.00,,,0.00,Rainwise IP-100,2013-08-20 06:22:00,
2013-08-19 23:27:00,58.5,59.0,29.67,WSW,247,5.8,11.0,100,0.00,,,0.00,Rainwise IP-100,2013-08-20 06:27:00,
2013-08-19 23:32:00,58.5,59.0,29.67,WSW,247,6.8,8.0,100,0.00,,,0.00,Rainwise IP-100,2013-08-20 06:32:00,
2013-08-19 23:37:00,58.5,59.0,29.67,SSW,202,6.3,12.0,100,0.00,,,0.00,Rainwise IP-100,2013-08-20 06:37:00,
2013-08-19 23:42:00,58.4,58.0,29.67,SSW,202,9.3,9.3,100,0.00,,,0.00,Rainwise IP-100,2013-08-20 06:42:00,
2013-08-19 23:47:00,58.4,58.0,29.68,SSW,202,4.4,9.0,100,0.00,,,0.00,Rainwise IP-100,2013-08-20 06:47:00,
2013-08-19 23:52:00,58.4,58.0,29.67,SW,225,3.7,7.0,100,0.00,,,0.00,Rainwise IP-100,2013-08-20 06:52:00,
2013-08-19 23:57:00,58.4,58.0,29.67,SW,225,7.0,7.0,100,0.00,,,0.00,Rainwise IP-100,2013-08-20 06:57:00,